Deadman Valley, Northwest Territories

1:46 PM MST on February 27, 2017 (GMT -0700)
Deadman Valley

Weather History for CXDK - May, 2013

Change the Weather History Date:

Friday, May 10, 2013

  Actual Average Record
Temperature  
Mean Temperature 43 °F -  
Max Temperature 66 °F - - ()
Min Temperature 20 °F - - ()
Degree Days  
Heating Degree Days 22    
Moisture  
Dew Point 23 °F    
Average Humidity 55    
Maximum Humidity 97    
Minimum Humidity 8    
Precipitation  
Precipitation 0.00 in - - ()
Sea Level Pressure  
Sea Level Pressure 30.33 in    
Wind  
Wind Speed 18 mph ()    
Max Wind Speed 40 mph    
Max Gust Speed -    
T = Trace of Precipitation, MM = Missing Value Source: Averaged Metar Reports

Daily Weather History Graph

Daily Weather History Graph

Search for Another Location

Airport or City:

Trip Planner

Search our weather history database for the weather conditions in past years. The results will help you decide how hot, cold, wet, or windy it might be!

Date:

Astronomy

May. 10, 2013 Rise Set
Actual Time 5:42 AM MDT 10:48 PM MDT
Civil Twilight 4:37 AM MDT 11:54 PM MDT
Nautical Twilight 2:46 AM MDT 1:41 AM MDT
Astronomical Twilight Sun does not rise Sun does not rise
Moon 6:09 AM MDT (5/10) 11:50 PM MDT (5/10)
Length of Visible Light 19h 16m
Length of Day
17h 05m
New Moon, 1% of the Moon is Illuminated
May 10
New Moon
May 17
First Quarter
May 24
Full
May 31
Last Quarter
Jun 8
New

Hourly Weather History & Observations

Time (MDT) Temp. Windchill Dew Point Humidity Pressure Visibility Wind Dir Wind Speed Gust Speed Precip Events Conditions
12:00 AM 32 °F - 26 °F 68% 30.45 in - Calm Calm - -  
12:00 AM 31.8 °F - 25.5 °F 78% 30.45 in - Calm Calm - N/A   Unknown
1:00 AM 27.5 °F 11.0 °F 24.1 °F 87% 30.46 in - North 32.2 mph - N/A   Unknown
2:00 AM 26.2 °F 20.7 °F 24.3 °F 92% 30.47 in - North 4.6 mph - N/A   Unknown
3:00 AM 23.9 °F 6.1 °F 22.1 °F 93% 30.47 in - North 32.2 mph - N/A   Unknown
4:00 AM 23.0 °F 4.1 °F 21.9 °F 96% 30.47 in - North 35.7 mph - N/A   Unknown
5:00 AM 21.7 °F 2.9 °F 20.7 °F 96% 30.48 in - North 33.4 mph - N/A   Unknown
6:00 AM 22 °F - 21 °F 94% 30.48 in - Calm Calm - -  
6:00 AM 21.7 °F 10.2 °F 21.0 °F 97% 30.48 in - North 11.5 mph - N/A   Unknown
7:00 AM 22.6 °F - 21.6 °F 96% 30.46 in - North 1.2 mph - N/A   Unknown
8:00 AM 33.6 °F 26.8 °F 26.6 °F 75% 30.45 in - North 8.1 mph - N/A   Unknown
9:00 AM 38.8 °F 31.6 °F 27.3 °F 63% 30.43 in - North 11.5 mph - N/A   Unknown
10:00 AM 45.3 °F 36.3 °F 27.3 °F 49% 30.40 in - North 26.5 mph - N/A   Unknown
11:00 AM 48.9 °F - 28.0 °F 44% 30.37 in - North 26.5 mph - N/A   Unknown
12:00 PM 55 °F - 24 °F 18% 30.34 in - Calm Calm - -  
12:00 PM 54.7 °F - 23.5 °F 30% 30.34 in - North 39.1 mph - N/A   Unknown
1:00 PM 57.0 °F - 23.2 °F 27% 30.31 in - North 39.1 mph - N/A   Unknown
5:00 PM 64.6 °F - 20.5 °F 19% 30.18 in - North 39.1 mph - N/A   Unknown
6:00 PM 65 °F - 18 °F 8% 30.15 in - Calm Calm - -  
6:00 PM 65.3 °F - 17.6 °F 16% 30.15 in - North 36.8 mph - N/A   Unknown
7:00 PM 66.2 °F - 17.4 °F 15% 30.12 in - North 32.2 mph - N/A   Unknown
8:00 PM 66.7 °F - 18.7 °F 16% 30.09 in - North 2.3 mph - N/A   Unknown
9:00 PM 63.3 °F - 18.7 °F 18% 30.07 in - North 5.8 mph - N/A   Unknown
10:00 PM 55.2 °F - 25.3 °F 32% 30.06 in - North 40.3 mph - N/A   Unknown
11:00 PM 42.4 °F 32.0 °F 27.5 °F 56% 30.06 in - North 28.8 mph - N/A   Unknown